THORAD DELTA 1 DEB, 8165

Orbit data source: Space-Track

THORAD DELTA 1 DEB, 8165 is space debris in SSO originally from a launch on Fri, 15 Nov 1974 UTC launched from the Air Force Western Test Range (AFWTR). Debris objects in space refer to the collection of defunct objects orbiting the Earth. Examples of debris include non-operational satellites, rocket bodies, and fragments generated from explosions, collisions, or faulty payload assembly.

Loading next visibility...
Identifier
8165, 1974-089AF
Orbit
SSO
Country
Flag of USUS
Related business
Manufacturer
Unknown
Mission
Spacecraft
Bus & Motor
Unknown
Mass
Unknown
Launch date (UTC)
1974-11-15 (51 years ago)
Launch vehicle
Unknown
Launch site
Air Force Western Test Range (AFWTR)
Object type
Payload
Rocket body
Debris
Shape & HBR
Unknown shape, 0.1 m
Radar Cross Section
Small (<0.1 m²)

Expand to show TLE details & history
Last TLE update: 2 days ago

TLE from 2 days ago
0 THORAD DELTA 1 DEB
1 08165U 74089AF  25301.34571906 -.00000018  00000-0  17192-3 0  9997
2 08165 101.6828 245.1329 0018665 328.7257 162.9860 12.50174508323793
Epoch: 2025-10-28T08:17Z
TLE epoch observation values (Epoch: 2025-10-28T08:17:50.126Z)
Latitude
47.00477°
Longitude
-83.51081°
Altitude
1,484.794 km
Speed
7.119 km/s
True Right ascension
05h 11m 31s
True Declination
46° 50' 57"
Sunlit
Object was in full shadow at epoch
Visualization orbit readout
Latitude
Unknown
Longitude
Unknown
Altitude
Unknown
Speed
Unknown
Apparent Right ascension
Unknown
Apparent Declination
Unknown
Sunlit
N/A
Visualization observer readout
Local Sidereal Time
17:30:38
Azimuth
Unknown
Elevation
Unknown
Doppler factor
Unknown
Orbital elements
Apogee altitude
1,475.94 km
Perigee altitude
1,446.675 km
Semi-major axis
7,839.445 km
Eccentricity
0.00187
Inclination
101.6828°
RAAN
245.1329°
Arg. of periapsis
328.7257°
True anomaly
163.04844°
Mean anomaly
162.986°
Eccentric anomaly
163.01724°
Mean motion
3.12691 °/min
Orbital period
115.13 mins
BSTAR
0.00017192
Loading maneuver chart data...
Computing Atmospheric mass density...

Documentation

Showing up to 5 results
|